sat.trackr.live / text

‹ back to catalog

STARLINK-37460

NORAD 68803 · 2026-089B

PAYLOAD ACTIVE UNKNOWN

§ Identity

Operator
Country
US
Launch date
2026-04-23
Launch site
AFWTR
Launch vehicle
Mass (kg)
RCS (m²)

Purposes: comms

External: N2YO · Heavens-Above · Gunter

§ Orbital elements

Epoch: 2026-09-19T09:18:11.269152Z

Period
93.91 min
Inclination
97.2854°
Eccentricity
0.0001725
Mean motion
15.33447119 rev/d
Perigee alt
464.4 km
Apogee alt
466.7 km
Semi-major
6,843.7 km
B*
2.3503e-4
RAAN
108.0895°
Arg perigee
91.7301°
Mean anomaly
268.4139°
Rev number
2,308

§ Raw data

STARLINK-374601 68803U 26089B   26262.38763043  .00007521  00000+0  23503-3 0  99922 68803  97.2854 108.0895 0001725  91.7301 268.4139 15.33447119 23083

JSON: /api/v1/satellites/68803 · /tle

For live sub-satellite position, see the globe view (requires WebGL).

§ Visibility from observer

Set your observer location to see the next 7 days of passes ≥ 10°. The values pass through the URL so the page stays shareable.

No JS? Fill the form by hand. The geolocation button needs JavaScript.